Location: Groß Eilstorf
(52.8200°N, 9.4552°E)
Time: 12:03:49
(UTC+00:00)

ACS3 Solar Sail - Pass Details

Date: 15 May 2026
Orbit: 883 x 949 km, 97.2° (Epoch: 5 June)

Event Time Altitude Azimuth Distance (km) Brightness Sun altitude
Rises 23:27:22 0° 17° (NNE) 3,507 6.2 -18.1°
Reaches altitude 10° 23:30:00 10° 26° (NNE) 2,559 5.0 -18.1°
Maximum altitude 23:35:13 36° 93° (E) 1,368 2.6 -18.0°
Enters shadow 23:38:17 21° 145° (SE) 1,870 2.9 -18.0°
